ONEWEB-0040 (45147 NORAD) Tracking and Keplerian Element Data

This shows tracking and keplerian element data for the satellite.

Feedback or suggestion? Click here.




ElementValue
Catalog45147
NameONEWEB-0040
Epoch Orbit928
Epoch Day94.11126048
Epoch Year2020
RAAN145.3767
Inclination87.3848
Eccentricity0.0023018
Argument of Perigee102.9475
Mean Anonmoly257.4311
Mean Motion14.65185921
Decay Rate-0.00329625
L11 45147U 20008S 20094.11126048 -.00329625 00000-0 -64151-1 0 9996
L22 45147 87.3848 145.3767 0023018 102.9475 257.4311 14.65185921 9280

Live tracking and technical data element details for ONEWEB-0040 (NORAD 45147). ONEWEB-0040 can be tracked NOW for your location showing map with azimuth and elevation plus other details from your city location.

Track the satellite on the map from your city or location and see movement details for azimuth, elevation, latitude, longitude, range, height, and movement on the map or in text.







IsCatalogInMostPopularTable: catalog: 45147, numindb: 14
Update: records affected: 1



GetName: 45147 ONEWEB-0040

Hit Count: updated at: Mon, 06 Apr 2020 12:24:56 GMT